Regional Weather Roundup
Issued by NWS Wakefield, VA

Home | Current Version | Previous Version | Graphics & Text | Print | Product List | Glossary On
Versions: 1 2 3 4 5 6 7 8 9 10 11 12 13 14 15 16 17 18 19 20 21 22 23 24 25 26 27 28 29 30 31 32 33 34 35 36 37 38 39 40 41 42 43 44 45 46 47 48 49 50
000
ASUS41 KAKQ 291510
RWRAKQ

REGIONAL WEATHER ROUNDUP
NATIONAL WEATHER SERVICE WAKEFIELD VA
1000 AM EST THU JAN 29 2015

Note: "fair" indicates few or no clouds below 12,000 feet with no
significant weather and/or obstructions to visibility. * = Denotes
station may not report precipitation (e.g., rain,snow,etc.),
thunder or fog.

VAZ042-051-052>054-056-291600-
NORTHERN VIRGINIA

CITY           SKY/WX    TMP DP  RH WIND       PRES   REMARKS
WASH NATIONAL  CLOUDY    33   6  32 CALM      30.32F
DULLES         CLOUDY    25  13  60 SW6       30.30S
FORT BELVOIR   CLOUDY    28  15  57 SW2       30.32F
QUANTICO       CLOUDY    29  16  58 CALM      30.34S
FREDERICKSBRG* CLOUDY    29  19  65 CALM      30.32S
STAFFORD*      CLOUDY    28  17  64 CALM      30.36S
WARRENTON      CLOUDY    28  23  79 CALM      30.29F
CULPEPER*      PTSUNNY   28  19  69 CALM      30.31
MANASSAS*      NOT AVBL
LEESBURG*      CLOUDY    28  18  64 S5        30.29F
WINCHESTER     CLOUDY    30  14  51 SE3       30.21F
FRONT ROYAL*   CLOUDY    28  18  64 CALM      30.21F
LURAY*         CLOUDY    30  21  69 SW3       30.21F
$$

VAZ048-049-060>072-079>083-291600-
CENTRAL AND SOUTH CENTRAL VIRGINIA

CITY           SKY/WX    TMP DP  RH WIND       PRES   REMARKS
RICHMOND       CLOUDY    30  13  49 SW5       30.34R
CHESTERFIELD*  FAIR      28   7  40 CALM      30.35R
PETERSBURG*    CLOUDY    30  19  62 SW3       30.36R
HANOVER        CLOUDY    28  14  55 S5        30.34S
TAPPAHANNOCK*  CLOUDY    30  14  51 CALM      30.33F
QUINTON*       FAIR      28  15  58 CALM      30.34S
CHARLOTTSVILLE CLOUDY    32   9  38 S8        30.27F
GORDONSVILLE*  PTSUNNY   31  11  44 SW7       30.30S
ORANGE*        MOSUNNY   32  18  55 S6        30.31S
LOUISA*        PTSUNNY   30  10  43 SW5       30.29S
BUMPASS*       FAIR      28  14  55 SW3       30.31S
FARMVILLE*     MOSUNNY   34  21  60 S3        30.31S
CREWE*         FAIR      31  12  44 S6        30.33S
FORT PICKETT*  FAIR      31  13  47 S5        30.33S
CHASE CITY*    FAIR      34  17  50 SE6       30.32F
CLARKSVILLE*   FAIR      32  16  51 S3        30.33S
SOUTH HILL*    CLOUDY    30  16  55 S5        30.40S
LAWRENCEVILLE* FAIR      28  17  63 CALM      30.34S
EMPORIA*       CLOUDY    28  19  69 CALM      30.38R
$$

VAZ088>098-291600-
SOUTHEAST VIRGINIA

CITY           SKY/WX    TMP DP  RH WIND       PRES   REMARKS
NORFOLK        PTSUNNY   35  14  42 E7        30.34S
VIRGINIA BEACH PTSUNNY   37  14  38 E7        30.34F
NORFOLK NAVAL  PTSUNNY   38  19  46 E5        30.36S
WEST POINT*    CLOUDY    33  19  56 CALM      30.36S
SALUDA*        FAIR      32  19  57 SE5       30.34R
NEWPORT NEWS   PTSUNNY   36  21  54 E6        30.34F
LANGLEY AFB    MOSUNNY   34  21  57 VRB3      30.34F
FORT EUSTIS    PTSUNNY   33  20  57 S3        30.33S
WILLIAMSBURG*    N/A     36  19  51 CALM      30.36R
HR EXEC AP*    FAIR      32  21  64 CALM      30.37S
FRANKLIN*      CLOUDY    31  17  55 CALM      30.37R
WAKEFIELD      CLOUDY    32  15  49 CALM      30.35S
$$

VAZ020-022-025-037-045-291600-
WEST CENTRAL AND SOUTHWEST VIRGINIA

CITY           SKY/WX    TMP DP  RH WIND       PRES   REMARKS
STAUNTON*      MOSUNNY   32  17  53 S5        30.23F
WAYNESBORO*    FAIR      30  14  50 CALM      30.20F
HOT SPRINGS VA PTSUNNY   28  13  53 S10       30.06F WCI  19
LYNCHBURG      MOSUNNY   31  10  41 S7        30.29F
DANVILLE       MOSUNNY   34  11  38 S6        30.32F
SOUTH BOSTON*  FAIR      32  15  49 S5        30.33F
MARTINSVILLE   MOSUNNY   35  20  53 S3        30.30S
ROANOKE        PTSUNNY   30  16  56 CALM      30.26F
BLACKSBURG     PTSUNNY   33  17  50 SE6       30.21F
DUBLIN*        PTSUNNY   32  24  72 E3        30.19F
MARION*        MOSUNNY   32  19  60 E7        30.17F
HILLSVILLE*    MOSUNNY   36  19  49 S10G16    30.15F
RICHLANDS*     FAIR      44  10  25 SW6       30.08S
WISE*          PTSUNNY   39  18  41 SW7       30.09S
ABINGDON*      PTSUNNY   38  22  52 E6        30.14S
$$

MDZ021>025-VAZ099-100-291600-
SOUTHERN MARYLAND AND THE DELMARVA PENINSULA

CITY           SKY/WX    TMP DP  RH WIND       PRES   REMARKS
PATUXENT RIVER PTSUNNY   31  13  47 E9        30.32S
BAY BRIDGE APT   N/A     32   9  37 SE7       30.32S
LEONARDTOWN    CLOUDY    32  14  47 MISG        N/A
DOVER          MOSUNNY   29  11  47 E9        30.32F
GEORGETOWN     SUNNY     31  13  47 E5        30.33F
EASTON         MOSUNNY   32  14  47 SE5       30.36R
CAMBRIDGE      PTSUNNY   32  12  43 E3        30.33R
SALISBURY      MOSUNNY   33  14  45 E5        30.33F
OCEAN CITY     SUNNY     32  17  54 NE5       30.34F
WALLOPS ISLAND PTSUNNY   31  15  52 E6        30.34F
ACCOMACK*      MOSUNNY   32  10  40 E5        30.33F
$$

NCZ012>017-030>032-291600-
NORTH CENTRAL AND EASTERN NORTH CAROLINA

CITY           SKY/WX    TMP DP  RH WIND       PRES   REMARKS
ROANOKE RAPIDS FAIR      32  21  64 SW3       30.37R
RALEIGH        PTSUNNY   34  10  37 S7        30.35F
ELIZABETH CITY PTSUNNY   35  17  47 N3        30.36F
AHOSKIE*       CLOUDY    30  17  58 CALM      30.37S
EDENTON*       PTSUNNY   35  20  55 CALM      30.38S
CURRITUCK*     PTSUNNY   34  17  48 NE5       30.36S
KILL DEVIL HLS PTSUNNY   36  23  57 N3        30.34S
MANTEO         PTSUNNY   36  23  60 N3        30.36S
CAPE HATTERAS  MOSUNNY   38  25  59 VRB3      30.36S
TARBORO*       FAIR      32  20  60 CALM      30.39S
GOLDSBORO      PTSUNNY   35  20  55 CALM      30.36S
WASHINGTON     MOSUNNY   33  15  48 CALM      30.39R
GREENVILLE     PTSUNNY   34  14  44 CALM      30.38S
NEW BERN       SUNNY     37  17  44 CALM      30.39S
WILMINGTON     MOSUNNY   39  18  42 NE3       30.39R
$$

VAZ048-291600-
ELSEWHERE

CITY           SKY/WX    TMP DP  RH WIND       PRES   REMARKS
HARRISBURG PA  CLOUDY    20   8  60 E5        30.28F
BALTIMORE      CLOUDY    28  11  48 E6        30.30F
ANNAPOLIS      CLOUDY    30  14  51 SE8       30.32S
ANDREWS AFB    SUNNY     28  11  48 SE7       30.29F
PHILADELPHIA   PTSUNNY   29   6  38 E8        30.33S
HENDERSON NC   PTSUNNY   32  10  39 S3        30.34S
GREENSBORO     PTSUNNY   39  21  48 SW8       30.28F
ROCKY MOUNT    CLOUDY    33  15  47 S5        30.37S
$$

VAZ100-291600-
MARINE

STATION/POSITION TIME  TEMP    WIND        PRES    WAVE   SWELL
                       AIR SEA DIR/SP/G            HT/PER HT/PER
                 (UTC) (F)     (DEG/KT/KT) (MB)    (FT/S) (FT/S)
BRANDYWINE LGT   1500   26 36   70/  6/  8 1027.1S
CAPE MAY NJ      1500   29 36              1026.5F
LEWES DE         1500   28 34   70/  7/  8 1026.8F
15NM E FENWICK I 1500   34 40              1026.9F   4/12
OCEAN-CITY-INLET 1500   28 36   10/  4/  5 1026.9S
WACHAPREAGUE VA  1500   31 35   60/  5/  7 1027.3F
THOMAS POINT MD  1500   29 36  130/  8/  8 1027.6F
COVE POINT MD    1500   29     130/  5/  7 1026.8R
SOLOMONS ISLAND  1500      37                N/A
BISHOPS HEAD MD  1500   30 33   90/  6/  7 1026.6R
PINEY POINT MD   1500          120/  7/  8   N/A
CAMBRIDGE MD     1500   29 34   80/  3/  6 1026.9R
LEWISETTA VA     1500   32 35  120/  6/  8 1026.7F
RAPPAHANNOCK LGT 1500           80/  7/  8 1027.6F
YORK RVR RNG VA  1500   34     110/  3/  4 1026.9R
YORKTOWN VA      1500   33 39   CALM  /  2 1027.4R
DOMINION TERM VA 1500   34      80/  4/  7 1027.6F
KIPTOPEKE VA     1500      43   80/  7/ 10   N/A
CHES BAY BRIDGE  1500   33 40   50/  6/  8 1027.1S
CAPE HENRY VA    1500   33      50/  5/  7 1026.2F
CHESAPEAKE LGHT  1400   33      10/  8/  8 1028.4R
WILLOUBY STN VA  1500   33     110/  6/  9 1027.8F
S CRANEY ISL VA  1500          100/  4/  5 1027.6R
CAPE HENRY BUOY  1400      42                N/A     4/ 6   2/13
CAPE CHARLES BUO 1500      40                N/A     3/12   3/12
OFFSHORE WE BUOY 1500      43                N/A     5/ 7   5/ 7
64NM E OF VA BCH 1500   38 48  360/ 12/ 16 1026.7S   5/11   5/11
DUCK PIER NC     1500   35 42   10/  5/  7 1027.0S
44100 DUCK FRF   1500      44                N/A     5/13   2/13
44056 DUCK FRF   1500      42                N/A     4/11   2/11
OREGON INLET NC  1500   36 41  340/  8/ 10 1027.9S
HATTERAS NC      1500   36 44   10/  6/  8 1028.5R
DIAMOND SHLS NC  1500   39 71  340/ 12/ 16 1027.9R   6/11   5/11
CAPE LOOKOUT NC  1400   36     360/  6/  7 1028.5R
$$


USA.gov is the U.S. government's official web portal to all federal, state and local government web resources and services.